| time (UTC) | temp F | wind direction | speed knots | gust knots | rain 1hr in | rain 24hr in | rain mn in | humidity % | barometer mb |
| 20260905212046 | 70 | 259 | 1.7 | 5.2 | 0.00 | 0.31 | 0.01 | 53 | 1016.9 |
| 20260905211601 | 70 | 252 | 1.7 | 5.2 | 0.00 | 0.31 | 0.01 | 52 | 1016.8 |
| 20260905211048 | 70 | 190 | 0.9 | 6.1 | 0.00 | 0.31 | 0.01 | 53 | 1016.9 |
| 20260905210548 | 69 | 242 | 1.7 | 6.1 | 0.00 | 0.31 | 0.01 | 52 | 1017.0 |
| 20260905210106 | 71 | 179 | 3.5 | 7.8 | 0.00 | 0.31 | 0.01 | 51 | 1017.0 |
| 20260905205547 | 71 | 159 | 2.6 | 7.8 | 0.00 | 0.31 | 0.01 | 53 | 1017.0 |
| 20260905205049 | 72 | 171 | 0.0 | 6.1 | 0.00 | 0.31 | 0.01 | 54 | 1016.9 |
| 20260905204558 | 71 | 165 | 2.6 | 6.1 | 0.00 | 0.31 | 0.01 | 52 | 1017.0 |
| 20260905204046 | 70 | 171 | 1.7 | 6.1 | 0.00 | 0.31 | 0.01 | 56 | 1017.1 |
| 20260905203550 | 71 | 163 | 2.6 | 6.1 | 0.00 | 0.31 | 0.01 | 53 | 1017.1 |
| 20260905203103 | 70 | 149 | 0.9 | 6.1 | 0.00 | 0.31 | 0.01 | 59 | 1017.1 |
| 20260905202546 | 69 | 0 | 0.0 | 6.1 | 0.00 | 0.31 | 0.01 | 60 | 1017.0 |
| 20260905202049 | 68 | 225 | 3.5 | 6.1 | 0.00 | 0.31 | 0.01 | 59 | 1017.1 |
| 20260905201606 | 68 | 235 | 1.7 | 5.2 | 0.00 | 0.31 | 0.01 | 62 | 1017.1 |
| 20260905201046 | 67 | 0 | 0.9 | 4.3 | 0.00 | 0.31 | 0.01 | 62 | 1017.1 |
| 20260905200546 | 68 | 241 | 0.9 | 4.3 | 0.00 | 0.31 | 0.01 | 63 | 1017.1 |
| 20260905195546 | 68 | 245 | 0.0 | 3.5 | 0.00 | 0.31 | 0.01 | 63 | 1017.1 |
| 20260905195046 | 66 | 209 | 1.7 | 4.3 | 0.00 | 0.31 | 0.01 | 65 | 1017.2 |
| 20260905194603 | 66 | 234 | 0.9 | 4.3 | 0.00 | 0.31 | 0.01 | 65 | 1017.2 |
| 20260905194046 | 67 | 234 | 0.9 | 5.2 | 0.00 | 0.31 | 0.01 | 65 | 1017.2 |
| 20260905193547 | 66 | 0 | 0.9 | 6.1 | 0.00 | 0.31 | 0.01 | 67 | 1017.2 |
| 20260905193102 | 65 | 322 | 0.0 | 6.1 | 0.00 | 0.31 | 0.01 | 67 | 1017.2 |
| 20260905192547 | 65 | 0 | 1.7 | 6.1 | 0.00 | 0.31 | 0.01 | 64 | 1017.3 |
| 20260905192047 | 65 | 186 | 0.9 | 5.2 | 0.00 | 0.31 | 0.01 | 68 | 1017.4 |
| 20260905191612 | 65 | 281 | 0.0 | 4.3 | 0.00 | 0.31 | 0.01 | 68 | 1017.4 |
| 20260905191045 | 65 | 0 | 0.9 | 4.3 | 0.00 | 0.31 | 0.01 | 68 | 1017.4 |
| 20260905190549 | 66 | 219 | 0.0 | 4.3 | 0.00 | 0.31 | 0.01 | 68 | 1017.4 |
| 20260905190104 | 65 | 0 | 1.7 | 7.0 | 0.00 | 0.31 | 0.01 | 68 | 1017.5 |
| 20260905185549 | 65 | 0 | 1.7 | 7.0 | 0.00 | 0.31 | 0.01 | 70 | 1017.4 |
| 20260905185048 | 65 | 196 | 0.0 | 5.2 | 0.00 | 0.31 | 0.01 | 71 | 1017.6 |
| 20260905184616 | 65 | 186 | 2.6 | 5.2 | 0.00 | 0.31 | 0.01 | 71 | 1017.6 |
| 20260905184046 | 64 | 149 | 0.0 | 6.1 | 0.00 | 0.31 | 0.01 | 71 | 1017.5 |
| 20260905183549 | 64 | 145 | 0.0 | 6.1 | 0.00 | 0.31 | 0.01 | 71 | 1017.6 |
| 20260905183102 | 64 | 172 | 2.6 | 6.1 | 0.00 | 0.31 | 0.01 | 69 | 1017.6 |
| 20260905182550 | 64 | 139 | 1.7 | 6.1 | 0.00 | 0.31 | 0.01 | 71 | 1017.7 |
| 20260905182050 | 63 | 153 | 0.9 | 6.1 | 0.00 | 0.31 | 0.01 | 73 | 1017.6 |
| 20260905181558 | 63 | 159 | 2.6 | 6.1 | 0.00 | 0.31 | 0.01 | 74 | 1017.7 |
| 20260905181045 | 63 | 0 | 0.9 | 6.1 | 0.00 | 0.31 | 0.01 | 74 | 1017.8 |
| 20260905180547 | 63 | 0 | 0.9 | 5.2 | 0.00 | 0.31 | 0.01 | 74 | 1017.9 |
| 20260905175547 | 62 | 175 | 0.9 | 5.2 | 0.00 | 0.31 | 0.01 | 76 | 1017.8 |
| 20260905175047 | 62 | 0 | 0.0 | 5.2 | 0.00 | 0.31 | 0.01 | 76 | 1017.9 |
| 20260905174609 | 62 | 170 | 0.0 | 5.2 | 0.00 | 0.31 | 0.01 | 78 | 1017.8 |
| 20260905174046 | 62 | 169 | 1.7 | 5.2 | 0.00 | 0.31 | 0.01 | 77 | 1018.0 |
| 20260905173547 | 61 | 0 | 1.7 | 5.2 | 0.00 | 0.31 | 0.01 | 75 | 1017.9 |
| 20260905173109 | 61 | 148 | 1.7 | 5.2 | 0.00 | 0.31 | 0.01 | 76 | 1017.8 |
| 20260905172549 | 61 | 0 | 0.9 | 4.3 | 0.00 | 0.31 | 0.01 | 79 | 1018.0 |
| 20260905172046 | 60 | 275 | 0.0 | 1.7 | 0.00 | 0.31 | 0.01 | 85 | 1017.9 |
| 20260905171559 | 59 | 0 | 0.0 | 2.6 | 0.01 | 0.31 | 0.01 | 86 | 1018.0 |
| 20260905171049 | 58 | 0 | 0.0 | 2.6 | 0.01 | 0.31 | 0.01 | 86 | 1017.9 |
| 20260905170547 | 58 | 0 | 0.0 | 2.6 | 0.01 | 0.31 | 0.01 | 87 | 1017.9 |
| 20260905170100 | 58 | 0 | 0.0 | 2.6 | 0.01 | 0.31 | 0.01 | 87 | 1018.0 |
| 20260905165546 | 57 | 275 | 0.0 | 2.6 | 0.01 | 0.31 | 0.01 | 87 | 1018.0 |
| 20260905165046 | 57 | 0 | 0.0 | 2.6 | 0.01 | 0.31 | 0.01 | 88 | 1018.0 |
| 20260905164600 | 57 | 273 | 0.0 | 3.5 | 0.01 | 0.31 | 0.01 | 90 | 1017.9 |
| 20260905164047 | 56 | 259 | 0.0 | 3.5 | 0.01 | 0.31 | 0.01 | 89 | 1017.8 |
| 20260905163546 | 56 | 0 | 0.9 | 3.5 | 0.01 | 0.31 | 0.01 | 92 | 1017.8 |
| 20260905163106 | 55 | 0 | 0.0 | 3.5 | 0.01 | 0.31 | 0.01 | 94 | 1017.7 |
| 20260905162547 | 55 | 0 | 0.0 | 2.6 | 0.01 | 0.31 | 0.01 | 95 | 1017.7 |
| 20260905162046 | 54 | 0 | 0.0 | 2.6 | 0.01 | 0.31 | 0.01 | 96 | 1017.7 |
| 20260905161559 | 54 | 147 | 0.0 | 1.7 | 0.00 | 0.30 | 0.00 | 97 | 1017.6 |
| 20260905161048 | 54 | 0 | 0.0 | 0.0 | 0.00 | 0.30 | 0.00 | 98 | 1017.5 |
| 20260905160545 | 53 | 0 | 0.0 | 0.0 | 0.00 | 0.30 | 0.00 | 98 | 1017.5 |
| 20260905160100 | 53 | 0 | 0.0 | 0.0 | 0.00 | 0.30 | 0.00 | 98 | 1017.5 |
| 20260905155548 | 52 | 0 | 0.0 | 0.0 | 0.00 | 0.30 | 0.00 | 98 | 1017.5 |
| 20260905155046 | 52 | 0 | 0.0 | 0.0 | 0.00 | 0.30 | 0.00 | 98 | 1017.4 |
| 20260905154557 | 52 | 0 | 0.0 | 0.0 | 0.00 | 0.30 | 0.00 | 98 | 1017.4 |
| 20260905154046 | 51 | 0 | 0.0 | 0.0 | 0.00 | 0.30 | 0.00 | 98 | 1017.5 |
| 20260905153545 | 51 | 0 | 0.0 | 0.0 | 0.00 | 0.30 | 0.00 | 98 | 1017.5 |
| 20260905153102 | 51 | 0 | 0.0 | 0.0 | 0.00 | 0.30 | 0.00 | 98 | 1017.4 |
| 20260905152549 | 51 | 0 | 0.0 | 0.0 | 0.00 | 0.30 | 0.00 | 98 | 1017.5 |
| 20260905152047 | 50 | 0 | 0.0 | 0.0 | 0.00 | 0.30 | 0.00 | 98 | 1017.4 |
| 20260905151604 | 50 | 0 | 0.0 | 0.0 | 0.00 | 0.30 | 0.00 | 98 | 1017.5 |
| 20260905151047 | 50 | 0 | 0.0 | 0.0 | 0.00 | 0.30 | 0.00 | 98 | 1017.4 |
| 20260905150546 | 49 | 0 | 0.0 | 0.0 | 0.00 | 0.30 | 0.00 | 98 | 1017.4 |
| 20260905150058 | 49 | 0 | 0.0 | 0.0 | 0.00 | 0.30 | 0.00 | 98 | 1017.4 |
| 20260905145547 | 49 | 0 | 0.0 | 0.0 | 0.00 | 0.30 | 0.00 | 98 | 1017.4 |
| 20260905145047 | 49 | 0 | 0.0 | 0.0 | 0.00 | 0.30 | 0.00 | 98 | 1017.4 |
| 20260905144558 | 49 | 0 | 0.0 | 0.0 | 0.00 | 0.30 | 0.00 | 98 | 1017.4 |
| 20260905144050 | 49 | 0 | 0.0 | 0.0 | 0.00 | 0.30 | 0.00 | 97 | 1017.4 |
| 20260905143550 | 49 | 0 | 0.0 | 0.0 | 0.00 | 0.30 | 0.00 | 97 | 1017.3 |
| 20260905143059 | 49 | 0 | 0.0 | 0.0 | 0.00 | 0.30 | 0.00 | 97 | 1017.2 |
| 20260905142546 | 49 | 0 | 0.0 | 0.0 | 0.00 | 0.30 | 0.00 | 97 | 1017.2 |
| 20260905142051 | 49 | 0 | 0.0 | 0.0 | 0.00 | 0.30 | 0.00 | 97 | 1017.2 |
| 20260905141613 | 49 | 0 | 0.0 | 0.0 | 0.00 | 0.30 | 0.00 | 97 | 1017.2 |
| 20260905141046 | 49 | 0 | 0.0 | 0.0 | 0.00 | 0.30 | 0.00 | 97 | 1017.1 |
| 20260905140547 | 49 | 0 | 0.0 | 0.0 | 0.00 | 0.30 | 0.00 | 97 | 1017.1 |
| 20260905140103 | 49 | 0 | 0.0 | 0.0 | 0.00 | 0.30 | 0.00 | 97 | 1017.1 |
| 20260905135548 | 49 | 0 | 0.0 | 0.0 | 0.00 | 0.30 | 0.00 | 97 | 1017.1 |
| 20260905135048 | 49 | 0 | 0.0 | 0.0 | 0.00 | 0.30 | 0.00 | 97 | 1017.0 |
| 20260905134607 | 49 | 0 | 0.0 | 0.0 | 0.00 | 0.30 | 0.00 | 97 | 1016.9 |
| 20260905134046 | 49 | 0 | 0.0 | 0.0 | 0.00 | 0.30 | 0.00 | 97 | 1016.8 |
| 20260905133546 | 49 | 0 | 0.0 | 0.0 | 0.00 | 0.30 | 0.00 | 97 | 1016.8 |
| 20260905133059 | 49 | 0 | 0.0 | 0.0 | 0.00 | 0.30 | 0.00 | 97 | 1016.9 |
| 20260905132547 | 49 | 0 | 0.0 | 0.0 | 0.00 | 0.30 | 0.00 | 97 | 1016.8 |
| 20260905132047 | 49 | 0 | 0.0 | 0.0 | 0.00 | 0.30 | 0.00 | 97 | 1016.9 |
| 20260905131606 | 49 | 0 | 0.0 | 0.0 | 0.00 | 0.30 | 0.00 | 97 | 1016.9 |
| 20260905131046 | 49 | 0 | 0.0 | 0.0 | 0.00 | 0.30 | 0.00 | 97 | 1016.9 |
| 20260905130547 | 49 | 0 | 0.0 | 0.0 | 0.00 | 0.30 | 0.00 | 97 | 1016.9 |
| 20260905130106 | 49 | 0 | 0.0 | 0.0 | 0.00 | 0.30 | 0.00 | 97 | 1016.9 |
| 20260905125547 | 49 | 0 | 0.0 | 0.0 | 0.00 | 0.30 | 0.00 | 97 | 1016.9 |
| 20260905125047 | 49 | 0 | 0.0 | 0.0 | 0.00 | 0.30 | 0.00 | 97 | 1016.9 |
| 20260905124601 | 49 | 0 | 0.0 | 0.0 | 0.00 | 0.30 | 0.00 | 97 | 1016.9 |
| 20260905124044 | 49 | 0 | 0.0 | 0.0 | 0.00 | 0.30 | 0.00 | 97 | 1016.9 |
| 20260905123548 | 49 | 0 | 0.0 | 0.0 | 0.00 | 0.30 | 0.00 | 97 | 1017.0 |
| 20260905123103 | 50 | 0 | 0.0 | 0.0 | 0.00 | 0.30 | 0.00 | 97 | 1017.0 |
| 20260905122546 | 50 | 0 | 0.0 | 0.0 | 0.00 | 0.30 | 0.00 | 97 | 1017.0 |
| 20260905122046 | 50 | 0 | 0.0 | 0.0 | 0.00 | 0.30 | 0.00 | 97 | 1017.0 |
| 20260905121555 | 50 | 0 | 0.0 | 0.0 | 0.00 | 0.30 | 0.00 | 97 | 1016.9 |
| 20260905121046 | 50 | 0 | 0.0 | 0.0 | 0.00 | 0.30 | 0.00 | 97 | 1016.9 |
| 20260905120545 | 50 | 0 | 0.0 | 0.0 | 0.00 | 0.30 | 0.00 | 97 | 1016.9 |
| 20260905120103 | 50 | 0 | 0.0 | 0.0 | 0.00 | 0.30 | 0.00 | 97 | 1016.9 |
| 20260905115550 | 50 | 0 | 0.0 | 0.0 | 0.00 | 0.30 | 0.00 | 97 | 1016.8 |
| 20260905115050 | 50 | 0 | 0.0 | 0.0 | 0.00 | 0.30 | 0.00 | 97 | 1016.7 |
| 20260905114637 | 50 | 0 | 0.0 | 0.0 | 0.00 | 0.30 | 0.00 | 97 | 1016.7 |
| 20260905114046 | 50 | 0 | 0.0 | 0.0 | 0.00 | 0.30 | 0.00 | 97 | 1016.7 |
| 20260905113547 | 51 | 0 | 0.0 | 0.0 | 0.00 | 0.30 | 0.00 | 97 | 1016.7 |
| 20260905113059 | 51 | 0 | 0.0 | 0.0 | 0.00 | 0.30 | 0.00 | 97 | 1016.6 |
| 20260905112546 | 51 | 0 | 0.0 | 0.0 | 0.00 | 0.30 | 0.00 | 97 | 1016.5 |
| 20260905112046 | 52 | 0 | 0.0 | 0.0 | 0.00 | 0.30 | 0.00 | 97 | 1016.6 |
| 20260905111559 | 52 | 0 | 0.0 | 0.0 | 0.00 | 0.30 | 0.00 | 97 | 1016.5 |
| 20260905111047 | 52 | 0 | 0.0 | 0.0 | 0.00 | 0.30 | 0.00 | 98 | 1016.6 |
| 20260905110546 | 51 | 0 | 0.0 | 0.0 | 0.00 | 0.30 | 0.00 | 98 | 1016.6 |
| 20260905110059 | 51 | 0 | 0.0 | 0.0 | 0.00 | 0.30 | 0.00 | 97 | 1016.6 |
| 20260905105547 | 51 | 0 | 0.0 | 0.0 | 0.00 | 0.32 | 0.00 | 97 | 1016.5 |
| 20260905105046 | 50 | 0 | 0.0 | 0.0 | 0.00 | 0.32 | 0.00 | 97 | 1016.6 |
| 20260905104558 | 50 | 0 | 0.0 | 0.0 | 0.00 | 0.32 | 0.00 | 97 | 1016.7 |
| 20260905104046 | 50 | 0 | 0.0 | 0.0 | 0.00 | 0.32 | 0.00 | 97 | 1016.7 |
| 20260905103546 | 50 | 0 | 0.0 | 0.0 | 0.00 | 0.32 | 0.00 | 97 | 1016.7 |
| 20260905103058 | 51 | 0 | 0.0 | 0.0 | 0.00 | 0.32 | 0.00 | 97 | 1016.7 |
| 20260905102546 | 50 | 0 | 0.0 | 0.0 | 0.00 | 0.32 | 0.00 | 97 | 1016.7 |
| 20260905102048 | 51 | 0 | 0.0 | 0.0 | 0.00 | 0.32 | 0.00 | 97 | 1016.7 |
| 20260905101602 | 51 | 0 | 0.0 | 0.0 | 0.00 | 0.32 | 0.00 | 97 | 1016.6 |
| 20260905101046 | 51 | 0 | 0.0 | 0.0 | 0.00 | 0.32 | 0.00 | 97 | 1016.7 |
| 20260905100547 | 51 | 0 | 0.0 | 0.0 | 0.00 | 0.32 | 0.00 | 97 | 1016.6 |
| 20260905100113 | 51 | 0 | 0.0 | 0.0 | 0.00 | 0.32 | 0.00 | 97 | 1016.6 |
| 20260905095546 | 51 | 0 | 0.0 | 0.0 | 0.00 | 0.32 | 0.00 | 97 | 1016.7 |
| 20260905095050 | 51 | 0 | 0.0 | 0.0 | 0.00 | 0.32 | 0.00 | 97 | 1016.6 |
| 20260905094610 | 51 | 0 | 0.0 | 0.0 | 0.00 | 0.32 | 0.00 | 97 | 1016.7 |
| 20260905094047 | 51 | 0 | 0.0 | 0.0 | 0.00 | 0.32 | 0.00 | 97 | 1016.6 |
| 20260905093547 | 51 | 0 | 0.0 | 0.0 | 0.00 | 0.32 | 0.00 | 97 | 1016.6 |
| 20260905093104 | 51 | 0 | 0.0 | 0.0 | 0.00 | 0.32 | 0.00 | 97 | 1016.6 |
| 20260905092549 | 51 | 0 | 0.0 | 0.0 | 0.00 | 0.32 | 0.00 | 97 | 1016.5 |
| 20260905092047 | 51 | 0 | 0.0 | 0.0 | 0.00 | 0.32 | 0.00 | 97 | 1016.5 |
| 20260905091614 | 51 | 0 | 0.0 | 0.0 | 0.00 | 0.32 | 0.00 | 97 | 1016.5 |
| 20260905091045 | 51 | 0 | 0.0 | 0.0 | 0.00 | 0.32 | 0.00 | 97 | 1016.4 |
| 20260905090546 | 51 | 0 | 0.0 | 0.0 | 0.00 | 0.32 | 0.00 | 97 | 1016.5 |
| 20260905090057 | 51 | 0 | 0.0 | 0.0 | 0.00 | 0.32 | 0.00 | 97 | 1016.4 |
| 20260905085547 | 51 | 0 | 0.0 | 0.0 | 0.00 | 0.32 | 0.00 | 97 | 1016.4 |
| 20260905085046 | 51 | 0 | 0.0 | 0.0 | 0.00 | 0.32 | 0.00 | 97 | 1016.4 |
| 20260905084603 | 51 | 0 | 0.0 | 0.0 | 0.00 | 0.32 | 0.00 | 97 | 1016.4 |
| 20260905084045 | 51 | 0 | 0.0 | 0.0 | 0.00 | 0.32 | 0.00 | 97 | 1016.3 |
| 20260905083554 | 51 | 0 | 0.0 | 0.0 | 0.00 | 0.32 | 0.00 | 97 | 1016.3 |
| 20260905083103 | 52 | 0 | 0.0 | 0.0 | 0.00 | 0.32 | 0.00 | 96 | 1016.3 |
| 20260905082547 | 52 | 0 | 0.0 | 0.0 | 0.00 | 0.32 | 0.00 | 96 | 1016.4 |
| 20260905082047 | 52 | 0 | 0.0 | 0.0 | 0.00 | 0.32 | 0.00 | 96 | 1016.3 |
| 20260905081603 | 52 | 0 | 0.0 | 0.0 | 0.00 | 0.32 | 0.00 | 96 | 1016.2 |
| 20260905081046 | 52 | 0 | 0.0 | 0.0 | 0.00 | 0.32 | 0.00 | 96 | 1016.4 |
| 20260905080546 | 52 | 0 | 0.0 | 0.0 | 0.00 | 0.32 | 0.00 | 96 | 1016.3 |
| 20260905080057 | 52 | 0 | 0.0 | 0.0 | 0.00 | 0.32 | 0.00 | 97 | 1016.3 |
| 20260905075547 | 52 | 0 | 0.0 | 0.0 | 0.00 | 0.32 | 0.00 | 97 | 1016.3 |
| 20260905075046 | 52 | 0 | 0.0 | 0.0 | 0.00 | 0.32 | 0.00 | 96 | 1016.3 |
| 20260905074605 | 52 | 0 | 0.0 | 0.0 | 0.00 | 0.32 | 0.00 | 97 | 1016.3 |
| 20260905074047 | 52 | 0 | 0.0 | 0.0 | 0.00 | 0.32 | 0.00 | 96 | 1016.2 |
| 20260905073549 | 52 | 0 | 0.0 | 0.0 | 0.00 | 0.32 | 0.00 | 96 | 1016.3 |
| 20260905073109 | 52 | 0 | 0.0 | 0.0 | 0.00 | 0.32 | 0.00 | 96 | 1016.2 |
| 20260905072546 | 52 | 0 | 0.0 | 0.0 | 0.00 | 0.32 | 0.00 | 96 | 1016.1 |
| 20260905072046 | 52 | 0 | 0.0 | 0.0 | 0.00 | 0.32 | 0.00 | 96 | 1016.1 |
| 20260905071602 | 52 | 0 | 0.0 | 0.0 | 0.00 | 0.32 | 0.00 | 96 | 1016.2 |
| 20260905071050 | 52 | 0 | 0.0 | 0.0 | 0.00 | 0.32 | 0.00 | 96 | 1016.2 |
| 20260905070546 | 52 | 0 | 0.0 | 0.0 | 0.00 | 0.32 | 0.00 | 96 | 1016.1 |
| 20260905070105 | 52 | 0 | 0.0 | 0.0 | 0.00 | 0.32 | 0.00 | 96 | 1016.1 |
| 20260905065546 | 52 | 0 | 0.0 | 0.0 | 0.00 | 0.32 | 0.32 | 96 | 1016.1 |
| 20260905065051 | 52 | 0 | 0.0 | 0.0 | 0.00 | 0.32 | 0.32 | 96 | 1016.1 |
| 20260905064616 | 52 | 0 | 0.0 | 0.0 | 0.00 | 0.32 | 0.32 | 96 | 1016.1 |
| 20260905064047 | 52 | 0 | 0.0 | 0.0 | 0.00 | 0.32 | 0.32 | 96 | 1016.1 |
| 20260905063547 | 52 | 0 | 0.0 | 0.0 | 0.00 | 0.32 | 0.32 | 96 | 1016.1 |
| 20260905063106 | 52 | 0 | 0.0 | 0.0 | 0.00 | 0.32 | 0.32 | 96 | 1016.0 |
| 20260905062546 | 52 | 0 | 0.0 | 0.0 | 0.00 | 0.32 | 0.32 | 96 | 1016.0 |
| 20260905062046 | 52 | 0 | 0.0 | 0.0 | 0.00 | 0.32 | 0.32 | 96 | 1016.0 |
| 20260905061619 | 52 | 0 | 0.0 | 0.0 | 0.00 | 0.32 | 0.32 | 96 | 1016.1 |
| 20260905061048 | 52 | 0 | 0.0 | 0.0 | 0.00 | 0.32 | 0.32 | 96 | 1016.1 |
| 20260905060546 | 52 | 0 | 0.0 | 0.0 | 0.00 | 0.32 | 0.32 | 96 | 1016.1 |
| 20260905060104 | 52 | 0 | 0.0 | 0.0 | 0.00 | 0.32 | 0.32 | 95 | 1016.0 |
| 20260905055548 | 52 | 0 | 0.0 | 0.0 | 0.00 | 0.32 | 0.32 | 96 | 1016.1 |
| 20260905055049 | 52 | 0 | 0.0 | 0.0 | 0.00 | 0.32 | 0.32 | 96 | 1016.1 |
| 20260905054603 | 52 | 0 | 0.0 | 0.0 | 0.00 | 0.32 | 0.32 | 95 | 1016.1 |
| 20260905054045 | 53 | 0 | 0.0 | 0.0 | 0.00 | 0.32 | 0.32 | 95 | 1016.1 |
| 20260905053548 | 53 | 0 | 0.0 | 0.0 | 0.00 | 0.32 | 0.32 | 95 | 1016.1 |
| 20260905053100 | 53 | 0 | 0.0 | 0.0 | 0.00 | 0.32 | 0.32 | 95 | 1016.1 |
| 20260905052546 | 53 | 0 | 0.0 | 0.0 | 0.00 | 0.32 | 0.32 | 95 | 1016.1 |
| 20260905052045 | 53 | 0 | 0.0 | 0.0 | 0.00 | 0.32 | 0.32 | 95 | 1016.1 |
| 20260905051611 | 53 | 0 | 0.0 | 0.0 | 0.00 | 0.32 | 0.32 | 95 | 1016.0 |
| 20260905051046 | 53 | 0 | 0.0 | 0.0 | 0.00 | 0.32 | 0.32 | 95 | 1016.0 |
| 20260905050545 | 53 | 0 | 0.0 | 0.9 | 0.00 | 0.32 | 0.32 | 95 | 1015.9 |
| 20260905050119 | 53 | 0 | 0.0 | 0.9 | 0.00 | 0.32 | 0.32 | 95 | 1015.9 |
| 20260905045547 | 54 | 0 | 0.0 | 1.7 | 0.00 | 0.32 | 0.32 | 95 | 1015.8 |
| 20260905045048 | 54 | 0 | 0.0 | 1.7 | 0.00 | 0.32 | 0.32 | 95 | 1015.9 |
| 20260905044603 | 54 | 0 | 0.0 | 0.9 | 0.00 | 0.32 | 0.32 | 95 | 1015.9 |
| 20260905044052 | 54 | 0 | 0.0 | 1.7 | 0.00 | 0.32 | 0.32 | 95 | 1016.0 |
| 20260905043548 | 54 | 0 | 0.0 | 2.6 | 0.00 | 0.32 | 0.32 | 95 | 1016.0 |
| 20260905043108 | 54 | 0 | 0.0 | 2.6 | 0.00 | 0.32 | 0.32 | 95 | 1015.9 |
| 20260905042550 | 54 | 0 | 0.0 | 0.0 | 0.00 | 0.32 | 0.32 | 94 | 1015.8 |
| 20260905042046 | 54 | 0 | 0.0 | 0.9 | 0.00 | 0.32 | 0.32 | 94 | 1015.7 |
| 20260905041603 | 55 | 0 | 0.0 | 3.5 | 0.00 | 0.32 | 0.32 | 94 | 1015.8 |
| 20260905041046 | 55 | 0 | 0.0 | 3.5 | 0.00 | 0.32 | 0.32 | 95 | 1015.8 |
| 20260905040546 | 55 | 147 | 1.7 | 3.5 | 0.00 | 0.32 | 0.32 | 95 | 1015.8 |
| 20260905040105 | 55 | 0 | 0.0 | 3.5 | 0.00 | 0.32 | 0.32 | 95 | 1015.9 |
| 20260905035546 | 55 | 147 | 1.7 | 3.5 | 0.00 | 0.32 | 0.32 | 95 | 1015.8 |
| 20260905035045 | 55 | 147 | 0.0 | 3.5 | 0.00 | 0.32 | 0.32 | 94 | 1015.7 |
| 20260905034613 | 54 | 0 | 0.0 | 3.5 | 0.00 | 0.32 | 0.32 | 95 | 1015.8 |
| 20260905034046 | 54 | 147 | 0.9 | 3.5 | 0.00 | 0.32 | 0.32 | 95 | 1015.8 |
| 20260905033547 | 54 | 0 | 0.0 | 0.0 | 0.00 | 0.32 | 0.32 | 94 | 1015.6 |
| 20260905033110 | 54 | 0 | 0.0 | 0.9 | 0.00 | 0.32 | 0.32 | 94 | 1015.4 |
| 20260905032550 | 54 | 0 | 0.0 | 0.9 | 0.00 | 0.32 | 0.32 | 94 | 1015.5 |
| 20260905032046 | 54 | 0 | 0.0 | 0.9 | 0.00 | 0.32 | 0.32 | 94 | 1015.5 |
| 20260905031615 | 55 | 0 | 0.0 | 0.0 | 0.00 | 0.32 | 0.32 | 94 | 1015.5 |
| 20260905031046 | 55 | 0 | 0.0 | 0.0 | 0.00 | 0.32 | 0.32 | 94 | 1015.5 |
| 20260905030546 | 55 | 0 | 0.0 | 0.0 | 0.00 | 0.32 | 0.32 | 94 | 1015.6 |
| 20260905030112 | 55 | 0 | 0.0 | 0.9 | 0.00 | 0.32 | 0.32 | 94 | 1015.5 |
| 20260905025548 | 55 | 0 | 0.0 | 0.9 | 0.00 | 0.32 | 0.32 | 94 | 1015.6 |
| 20260905025049 | 55 | 0 | 0.0 | 1.7 | 0.00 | 0.32 | 0.32 | 94 | 1015.7 |
| 20260905024605 | 55 | 0 | 0.0 | 2.6 | 0.00 | 0.32 | 0.32 | 93 | 1015.7 |
| 20260905024047 | 55 | 0 | 0.0 | 2.6 | 0.00 | 0.32 | 0.32 | 93 | 1015.7 |
| 20260905023547 | 56 | 0 | 0.0 | 1.7 | 0.01 | 0.32 | 0.32 | 93 | 1015.7 |
| 20260905023138 | 56 | 0 | 0.0 | 3.5 | 0.01 | 0.32 | 0.32 | 93 | 1015.7 |
| 20260905022547 | 56 | 0 | 0.0 | 7.0 | 0.01 | 0.32 | 0.32 | 93 | 1015.8 |
| 20260905022046 | 56 | 127 | 0.9 | 9.6 | 0.02 | 0.32 | 0.32 | 93 | 1015.8 |
| 20260905021605 | 56 | 137 | 3.5 | 9.6 | 0.02 | 0.32 | 0.32 | 92 | 1015.9 |
| 20260905021046 | 57 | 0 | 1.7 | 9.6 | 0.02 | 0.32 | 0.32 | 92 | 1015.8 |
| 20260905020547 | 57 | 159 | 3.5 | 11.3 | 0.02 | 0.32 | 0.32 | 93 | 1015.9 |
| 20260905020105 | 57 | 132 | 3.5 | 11.3 | 0.02 | 0.32 | 0.32 | 93 | 1015.8 |
| 20260905015546 | 57 | 132 | 2.6 | 9.6 | 0.04 | 0.32 | 0.32 | 93 | 1015.8 |
| 20260905015047 | 57 | 150 | 0.9 | 9.6 | 0.05 | 0.32 | 0.32 | 94 | 1015.6 |
| 20260905014606 | 57 | 146 | 4.3 | 9.6 | 0.07 | 0.32 | 0.32 | 93 | 1015.5 |
| 20260905014050 | 58 | 176 | 2.6 | 4.3 | 0.11 | 0.32 | 0.32 | 94 | 1015.3 |
| 20260905013550 | 57 | 187 | 0.0 | 1.7 | 0.13 | 0.31 | 0.31 | 94 | 1015.1 |
| 20260905013109 | 57 | 0 | 0.0 | 0.0 | 0.18 | 0.31 | 0.31 | 93 | 1014.8 |
| 20260905012547 | 57 | 0 | 0.0 | 0.0 | 0.23 | 0.31 | 0.31 | 93 | 1014.7 |
| 20260905012046 | 57 | 0 | 0.0 | 0.0 | 0.24 | 0.30 | 0.30 | 93 | 1014.7 |
| 20260905011607 | 57 | 0 | 0.0 | 0.0 | 0.25 | 0.30 | 0.30 | 93 | 1014.7 |
| 20260905011050 | 57 | 0 | 0.0 | 0.9 | 0.26 | 0.30 | 0.30 | 92 | 1014.5 |
| 20260905010545 | 57 | 0 | 0.0 | 0.9 | 0.26 | 0.30 | 0.30 | 92 | 1014.4 |
| 20260905010107 | 57 | 0 | 0.0 | 0.9 | 0.26 | 0.30 | 0.30 | 91 | 1014.3 |
| 20260905005552 | 57 | 0 | 0.0 | 1.7 | 0.25 | 0.28 | 0.28 | 90 | 1014.3 |
| 20260905005047 | 58 | 0 | 0.0 | 1.7 | 0.25 | 0.27 | 0.27 | 89 | 1014.3 |
| 20260905004606 | 58 | 188 | 0.0 | 1.7 | 0.23 | 0.25 | 0.25 | 90 | 1014.3 |
| 20260905004044 | 59 | 0 | 0.0 | 1.7 | 0.19 | 0.21 | 0.21 | 90 | 1014.4 |
| 20260905003547 | 60 | 0 | 0.0 | 1.7 | 0.15 | 0.17 | 0.17 | 89 | 1014.2 |
| 20260905003101 | 60 | 188 | 0.0 | 1.7 | 0.11 | 0.13 | 0.13 | 88 | 1014.2 |
| 20260905002548 | 61 | 0 | 0.0 | 1.7 | 0.06 | 0.08 | 0.08 | 88 | 1014.2 |
| 20260905002049 | 61 | 0 | 0.0 | 1.7 | 0.04 | 0.06 | 0.06 | 87 | 1014.3 |
| 20260905001609 | 62 | 0 | 0.0 | 1.7 | 0.03 | 0.05 | 0.05 | 86 | 1014.1 |
| 20260905001047 | 62 | 0 | 0.0 | 2.6 | 0.02 | 0.04 | 0.04 | 86 | 1014.0 |
| 20260905000548 | 62 | 36 | 0.9 | 4.3 | 0.02 | 0.04 | 0.04 | 85 | 1014.0 |
| 20260905000121 | 62 | 36 | 0.0 | 4.3 | 0.02 | 0.04 | 0.04 | 85 | 1013.9 |
| 20260904235547 | 64 | 36 | 1.7 | 4.3 | 0.01 | 0.03 | 0.03 | 78 | 1013.8 |
| 20260904235046 | 66 | 0 | 0.9 | 3.5 | 0.00 | 0.02 | 0.02 | 72 | 1013.8 |
| 20260904234602 | 67 | 169 | 0.9 | 4.3 | 0.00 | 0.02 | 0.02 | 68 | 1013.7 |
| 20260904234046 | 68 | 11 | 0.9 | 4.3 | 0.00 | 0.02 | 0.02 | 65 | 1013.7 |
| 20260904233546 | 70 | 0 | 0.0 | 7.8 | 0.00 | 0.02 | 0.02 | 59 | 1013.6 |
| 20260904233104 | 71 | 0 | 2.6 | 8.7 | 0.00 | 0.02 | 0.02 | 59 | 1013.6 |
| 20260904232546 | 71 | 311 | 3.5 | 8.7 | 0.00 | 0.02 | 0.02 | 59 | 1013.5 |
| 20260904232049 | 71 | 299 | 2.6 | 9.6 | 0.00 | 0.02 | 0.02 | 56 | 1013.4 |
| 20260904231604 | 71 | 299 | 2.6 | 9.6 | 0.00 | 0.02 | 0.02 | 58 | 1013.3 |
| 20260904231046 | 71 | 0 | 2.6 | 7.0 | 0.00 | 0.02 | 0.02 | 58 | 1013.3 |
| 20260904230550 | 71 | 296 | 2.6 | 7.0 | 0.00 | 0.02 | 0.02 | 59 | 1013.3 |
| 20260904230112 | 72 | 319 | 0.0 | 6.1 | 0.00 | 0.02 | 0.02 | 55 | 1013.3 |
| 20260904225547 | 71 | 282 | 1.7 | 6.1 | 0.00 | 0.02 | 0.02 | 57 | 1013.3 |
| 20260904225046 | 71 | 313 | 1.7 | 7.0 | 0.00 | 0.02 | 0.02 | 61 | 1013.2 |
| 20260904224604 | 69 | 10 | 0.9 | 7.8 | 0.00 | 0.02 | 0.02 | 63 | 1013.2 |
| 20260904224048 | 71 | 289 | 0.9 | 7.8 | 0.00 | 0.02 | 0.02 | 61 | 1013.3 |
| 20260904223549 | 71 | 331 | 0.9 | 6.1 | 0.00 | 0.02 | 0.02 | 62 | 1013.2 |
| 20260904223057 | 70 | 288 | 1.7 | 7.8 | 0.00 | 0.02 | 0.02 | 63 | 1013.2 |
| 20260904222546 | 70 | 0 | 1.7 | 7.8 | 0.00 | 0.02 | 0.02 | 61 | 1013.2 |
| 20260904222045 | 71 | 338 | 0.9 | 7.8 | 0.00 | 0.02 | 0.02 | 62 | 1013.3 |
| 20260904221603 | 70 | 271 | 1.7 | 7.0 | 0.00 | 0.02 | 0.02 | 64 | 1013.3 |
| 20260904221048 | 70 | 214 | 0.9 | 8.7 | 0.00 | 0.02 | 0.02 | 64 | 1013.3 |
| 20260904220548 | 70 | 311 | 1.7 | 8.7 | 0.00 | 0.02 | 0.02 | 63 | 1013.4 |
| 20260904220119 | 69 | 288 | 1.7 | 8.7 | 0.00 | 0.02 | 0.02 | 63 | 1013.4 |
| 20260904215547 | 69 | 0 | 2.6 | 8.7 | 0.00 | 0.02 | 0.02 | 64 | 1013.4 |
| 20260904215046 | 70 | 214 | 0.9 | 7.8 | 0.00 | 0.02 | 0.02 | 62 | 1013.4 |
| 20260904214557 | 68 | 199 | 1.7 | 8.7 | 0.00 | 0.02 | 0.02 | 67 | 1013.4 |
| 20260904214046 | 67 | 290 | 3.5 | 8.7 | 0.00 | 0.02 | 0.02 | 67 | 1013.4 |
| 20260904213546 | 68 | 330 | 1.7 | 7.8 | 0.00 | 0.02 | 0.02 | 68 | 1013.3 |
| 20260904213100 | 68 | 190 | 1.7 | 7.8 | 0.00 | 0.02 | 0.02 | 67 | 1013.3 |
| 20260904212547 | 68 | 294 | 0.9 | 7.8 | 0.00 | 0.02 | 0.02 | 68 | 1013.3 |